Weather History for Middlesboro, KY

Change the Weather History Date:

Sunday, February 3, 2013

  Actual Average (KLOZ) Record (KLOZ)
Temperature  
Mean Temperature 36 °F 37 °F  
Max Temperature 39 °F 47 °F 68 °F (1962)
Min Temperature 32 °F 27 °F -10 °F (1965)
Degree Days  
Heating Degree Days 29 28  
Month to date heating degree days 84  
Since 1 July heating degree days 2647  
Cooling Degree Days 0 0  
Month to date cooling degree days 0  
Year to date cooling degree days 0  
Moisture  
Dew Point 31 °F    
Average Humidity 84    
Maximum Humidity 100    
Minimum Humidity 75    
Precipitation  
Precipitation 0.02 in 0.12 in 1.51 in (1990)
Month to date precipitation 0.38  
Year to date precipitation 3.92  
Sea Level Pressure  
Sea Level Pressure 30.04 in    
Wind  
Wind Speed 2 mph (NW)    
Max Wind Speed 12 mph    
Max Gust Speed 22 mph    
Visibility 8 miles    
Events Rain , Snow    
T = Trace of Precipitation, MM = Missing Value Source: NWS Daily Summary

Daily Weather History Graph

Daily Weather History Graph

Search for Another Location

Airport:

Trip Planner

Search our weather history database for the weather conditions in past years. The results will help you decide how hot, cold, wet, or windy it might be!

Date:

Astronomy

Feb. 03, 2013 Rise Set
Actual Time 6:34 AM CST 5:03 PM CST
Civil Twilight 6:07 AM CST 5:30 PM CST
Nautical Twilight 5:37 AM CST 6:01 PM CST
Astronomical Twilight 5:06 AM CST 6:31 PM CST
Moon 12:00 AM CST (2/3) 10:40 AM CST (2/3)
Length of Visible Light 11h 22m
Length of Day
10h 28m
Waning Gibbous, 48% of the Moon is Illuminated
Feb 3
Waning Gibbous
Feb 10
New
Feb 17
First Quarter
Feb 25
Full
Mar 4
Last Quarter

Hourly Weather History & Observations

Time (CST) Temp. Windchill Dew Point Humidity Pressure Visibility Wind Dir Wind Speed Gust Speed Precip Events Conditions
12:15 AM 35.6 °F - 30.2 °F 81% 30.05 in 10.0 mi Calm Calm - N/A   Overcast
12:35 AM 37.4 °F - 30.2 °F 75% 30.05 in 10.0 mi Calm Calm - N/A   Overcast
12:55 AM 35.6 °F - 30.2 °F 81% 30.04 in 10.0 mi Calm Calm - N/A   Overcast
1:15 AM 35.6 °F - 30.2 °F 81% 30.04 in 10.0 mi Calm Calm - N/A   Overcast
1:35 AM 35.6 °F 32.8 °F 30.2 °F 81% 30.03 in 10.0 mi NNE 3.5 mph - N/A   Overcast
1:55 AM 35.6 °F - 30.2 °F 81% 30.04 in 10.0 mi Calm Calm - N/A   Overcast
2:15 AM 35.6 °F - 30.2 °F 81% 30.03 in 5.0 mi Calm Calm - N/A Snow Light Snow
2:35 AM 35.6 °F - 30.2 °F 81% 30.02 in 10.0 mi Calm Calm - N/A   Overcast
2:55 AM 35.6 °F - 30.2 °F 81% 30.02 in 10.0 mi Calm Calm - N/A   Overcast
3:15 AM 35.6 °F - 30.2 °F 81% 30.00 in 10.0 mi Calm Calm - N/A   Overcast
3:55 AM 35.6 °F - 32.0 °F 87% 29.99 in 10.0 mi Calm Calm - N/A   Overcast
4:15 AM 35.6 °F - 30.2 °F 81% 29.99 in 10.0 mi Calm Calm - N/A   Overcast
4:35 AM 35.6 °F - 32.0 °F 87% 29.98 in 10.0 mi Calm Calm - N/A   Overcast
4:55 AM 35.6 °F - 32.0 °F 87% 29.98 in 10.0 mi Calm Calm - N/A   Overcast
5:15 AM 33.8 °F - 32.0 °F 93% 29.97 in 10.0 mi Calm Calm - N/A   Overcast
5:35 AM 33.8 °F - 32.0 °F 93% 29.97 in 10.0 mi Calm Calm - N/A   Overcast
6:15 AM 33.8 °F - 33.8 °F 100% 29.97 in 1.5 mi Calm Calm - N/A Snow Light Snow
6:35 AM 33.8 °F - 33.8 °F 100% 29.96 in 1.8 mi Calm Calm - N/A Snow Light Snow
6:55 AM 33.8 °F - 33.8 °F 100% 29.97 in 2.0 mi Calm Calm - N/A Snow Light Snow
7:15 AM 33.8 °F - 33.8 °F 100% 29.97 in 1.0 mi Calm Calm - N/A Snow Light Snow
7:35 AM 33.8 °F - 33.8 °F 100% 29.96 in 1.5 mi Calm Calm - N/A   Overcast
7:55 AM 33.8 °F - 33.8 °F 100% 29.96 in 0.8 mi Calm Calm - N/A Snow Light Snow
8:15 AM 33.8 °F - 33.8 °F 100% 29.97 in 1.2 mi Calm Calm - N/A Snow Light Snow
8:35 AM 33.8 °F - 33.8 °F 100% 29.96 in 0.5 mi Calm Calm - N/A Snow Light Snow
8:55 AM 33.8 °F - 33.8 °F 100% 29.97 in 0.5 mi Calm Calm - 0.01 in Snow Light Snow
9:15 AM 33.8 °F - 33.8 °F 100% 29.96 in 0.8 mi Calm Calm - 0.01 in Snow Light Snow
9:35 AM 35.6 °F - 33.8 °F 93% 29.96 in 2.5 mi Calm Calm - 0.01 in Snow Light Snow
9:55 AM 35.6 °F 32.8 °F 33.8 °F 93% 29.97 in 5.0 mi NNE 3.5 mph - N/A Snow Light Snow
10:15 AM 35.6 °F 32.8 °F 35.6 °F 100% 29.97 in 10.0 mi NW 3.5 mph - N/A Snow Light Snow
10:35 AM 37.4 °F 33.8 °F 35.6 °F 93% 29.97 in 7.0 mi West 4.6 mph - N/A Rain Rain
10:55 AM 37.4 °F 30.8 °F 35.6 °F 93% 29.98 in 7.0 mi NW 9.2 mph - N/A Rain Light Rain
11:15 AM 37.4 °F 31.4 °F 35.6 °F 93% 29.97 in 10.0 mi NW 8.1 mph 18.4 mph N/A   Unknown
11:35 AM 37.4 °F 31.4 °F 35.6 °F 93% 29.97 in 10.0 mi NW 8.1 mph - N/A   Overcast
11:55 AM 37.4 °F 30.3 °F 33.8 °F 87% 29.97 in 10.0 mi WNW 10.4 mph - N/A   Overcast
12:15 PM 37.4 °F 30.8 °F 33.8 °F 87% 29.97 in 10.0 mi WNW 9.2 mph - N/A   Overcast
12:35 PM 37.4 °F 32.8 °F 32.0 °F 81% 29.98 in 10.0 mi WNW 5.8 mph 9.2 mph N/A   Overcast
12:55 PM 39.2 °F 32.5 °F 33.8 °F 81% 29.98 in 10.0 mi WNW 10.4 mph 20.7 mph N/A   Overcast
1:15 PM 39.2 °F 35.0 °F 32.0 °F 75% 29.99 in 10.0 mi West 5.8 mph - N/A   Overcast
1:35 PM 39.2 °F 34.2 °F 32.0 °F 75% 29.99 in 10.0 mi WNW 6.9 mph 10.4 mph N/A   Overcast
1:55 PM 37.4 °F 31.4 °F 32.0 °F 81% 30.00 in 1.0 mi WNW 8.1 mph - N/A   Overcast
2:15 PM 39.2 °F 35.0 °F 32.0 °F 75% 30.01 in 1.0 mi WNW 5.8 mph - N/A   Overcast
2:35 PM 37.4 °F 32.8 °F 32.0 °F 81% 30.02 in 1.0 mi WNW 5.8 mph 10.4 mph N/A   Overcast
2:55 PM 37.4 °F 33.8 °F 30.2 °F 75% 30.03 in 10.0 mi WNW 4.6 mph 19.6 mph N/A   Overcast
3:15 PM 37.4 °F 33.8 °F 30.2 °F 75% 30.03 in 10.0 mi NW 4.6 mph - N/A   Overcast
3:35 PM 37.4 °F 32.1 °F 30.2 °F 75% 30.04 in 10.0 mi WNW 6.9 mph 16.1 mph N/A   Overcast
3:55 PM 37.4 °F 30.8 °F 30.2 °F 75% 30.05 in 10.0 mi North 9.2 mph 18.4 mph N/A   Overcast
4:15 PM 37.4 °F 30.8 °F 30.2 °F 75% 30.06 in 10.0 mi WNW 9.2 mph - N/A   Overcast
4:35 PM 35.6 °F - 30.2 °F 81% 30.07 in 10.0 mi Calm Calm - N/A   Overcast
4:55 PM 35.6 °F 29.9 °F 28.4 °F 75% 30.08 in 10.0 mi NW 6.9 mph 21.9 mph N/A   Overcast
5:15 PM 35.6 °F - 28.4 °F 75% 30.09 in 10.0 mi North - - N/A   Overcast
5:35 PM 33.8 °F - 28.4 °F 81% 30.11 in 10.0 mi North - - N/A   Overcast
5:55 PM 33.8 °F 28.6 °F 26.6 °F 75% 30.12 in 10.0 mi NW 5.8 mph - N/A   Overcast
6:15 PM 33.8 °F 25.3 °F 26.6 °F 75% 30.13 in 10.0 mi WNW 11.5 mph 16.1 mph N/A   Overcast
7:15 PM 33.8 °F - 26.6 °F 75% 30.14 in 10.0 mi Calm Calm - N/A   Overcast
7:35 PM 33.8 °F - 26.6 °F 75% 30.15 in 10.0 mi North - - N/A   Overcast
7:55 PM 33.8 °F 30.8 °F 26.6 °F 75% 30.14 in 10.0 mi NW 3.5 mph - N/A   Overcast
8:15 PM 33.8 °F 30.8 °F 26.6 °F 75% 30.14 in 10.0 mi NNW 3.5 mph - N/A   Overcast
8:35 PM 33.8 °F 30.8 °F 26.6 °F 75% 30.15 in 10.0 mi NW 3.5 mph - N/A   Overcast
8:55 PM 33.8 °F 30.8 °F 26.6 °F 75% 30.15 in 10.0 mi NNW 3.5 mph - N/A   Overcast
9:15 PM 33.8 °F - 26.6 °F 75% 30.15 in 10.0 mi Calm Calm - N/A   Overcast
9:35 PM 33.8 °F 30.8 °F 26.6 °F 75% 30.15 in 10.0 mi NNW 3.5 mph - N/A   Overcast
9:55 PM 33.8 °F 27.7 °F 26.6 °F 75% 30.14 in 10.0 mi NW 6.9 mph - N/A   Overcast
10:15 PM 33.8 °F 28.6 °F 26.6 °F 75% 30.14 in 10.0 mi NW 5.8 mph - N/A   Overcast
10:35 PM 33.8 °F 28.6 °F 26.6 °F 75% 30.14 in 10.0 mi NW 5.8 mph - N/A   Overcast
10:55 PM 33.8 °F 30.8 °F 26.6 °F 75% 30.13 in 10.0 mi NNW 3.5 mph - N/A   Overcast
11:15 PM 33.8 °F 30.8 °F 26.6 °F 75% 30.13 in 10.0 mi WNW 3.5 mph - N/A   Overcast
11:35 PM 33.8 °F - 26.6 °F 75% 30.13 in 10.0 mi Calm Calm - N/A   Mostly Cloudy
11:55 PM 32.0 °F - 26.6 °F 80% 30.13 in 10.0 mi Calm Calm - N/A   Mostly Cloudy